• In Österreich
  • Länderverzeichnis
  • Für 7 Tage
  • Wassertemperatur
  • Satellitenkarten
  • Wetterkarte
  • News
  • Widgets
  • user-avatar
    Anmelden

    Stündliche Wetter Bindura

    Heute, 21 Oktober, Samstag

    Zeit Temperatur Niederschläge Wind Luftdruck Luftfeuchtigkeit
    00:00 +26°C° 0 mm 1 m/S 670 mmHg 38%
    01:00 +25°C° 0 mm 1 m/S 670 mmHg 41%
    02:00 +25°C° 0 mm 2 m/S 669 mmHg 54%
    03:00 +24°C° 0 mm 2 m/S 669 mmHg 60%
    04:00 +23°C° 0 mm 2 m/S 670 mmHg 67%
    05:00 +23°C° 0 mm 2 m/S 670 mmHg 74%
    06:00 +25°C° 0 mm 2 m/S 671 mmHg 63%
    07:00 +27°C° 0 mm 3 m/S 671 mmHg 51%
    08:00 +30°C° 0 mm 4 m/S 672 mmHg 39%
    09:00 +32°C° 0 mm 4 m/S 672 mmHg 33%
    10:00 +34°C° 0 mm 4 m/S 673 mmHg 27%
    11:00 +36°C° 0 mm 5 m/S 673 mmHg 20%
    12:00 +37°C° 0 mm 5 m/S 672 mmHg 19%
    13:00 +37°C° 0 mm 5 m/S 672 mmHg 17%
    14:00 +39°C° 0 mm 5 m/S 671 mmHg 16%
    15:00 +37°C° 0 mm 5 m/S 671 mmHg 16%
    16:00 +36°C° 0 mm 5 m/S 671 mmHg 17%
    17:00 +35°C° 0 mm 5 m/S 671 mmHg 17%
    18:00 +34°C° 0 mm 4 m/S 671 mmHg 20%
    19:00 +32°C° 0 mm 4 m/S 671 mmHg 24%
    20:00 +29°C° 0 mm 3 m/S 671 mmHg 27%
    21:00 +28°C° 0 mm 3 m/S 671 mmHg 34%
    22:00 +27°C° 0 mm 3 m/S 671 mmHg 41%
    23:00 +25°C° 0 mm 3 m/S 672 mmHg 48%

    Morgen, 22 Oktober, Sonntag

    Zeit Temperatur Niederschläge Wind Luftdruck Luftfeuchtigkeit
    00:00 +24°C° 0 mm 3 m/S 671 mmHg 54%
    01:00 +23°C° 0 mm 2 m/S 671 mmHg 60%
    02:00 +21°C° 0 mm 2 m/S 670 mmHg 66%
    03:00 +21°C° 0 mm 2 m/S 670 mmHg 70%
    04:00 +20°C° 0 mm 2 m/S 671 mmHg 75%
    05:00 +19°C° 0 mm 2 m/S 671 mmHg 79%
    06:00 +21°C° 0 mm 3 m/S 672 mmHg 70%
    07:00 +23°C° 0 mm 4 m/S 673 mmHg 61%
    08:00 +26°C° 0 mm 5 m/S 674 mmHg 52%
    09:00 +28°C° 0 mm 5 m/S 674 mmHg 46%
    10:00 +30°C° 0 mm 5 m/S 674 mmHg 39%
    11:00 +33°C° 0 mm 5 m/S 674 mmHg 32%
    12:00 +33°C° 0 mm 5 m/S 673 mmHg 32%
    13:00 +33°C° 0 mm 5 m/S 672 mmHg 32%
    14:00 +33°C° 0 mm 4 m/S 671 mmHg 32%
    15:00 +32°C° 0 mm 4 m/S 671 mmHg 32%
    16:00 +32°C° 0 mm 4 m/S 671 mmHg 32%
    17:00 +32°C° 0 mm 4 m/S 670 mmHg 32%
    18:00 +29°C° 0 mm 4 m/S 671 mmHg 38%
    19:00 +28°C° 0 mm 4 m/S 671 mmHg 44%
    20:00 +26°C° 0 mm 4 m/S 671 mmHg 51%
    21:00 +25°C° 0 mm 3 m/S 671 mmHg 56%
    22:00 +24°C° 0 mm 2 m/S 671 mmHg 62%
    23:00 +21°C° 0 mm 2 m/S 671 mmHg 67%

    übermorgen, 23 Oktober, Montag

    Zeit Temperatur Niederschläge Wind Luftdruck Luftfeuchtigkeit
    00:00 +22°C° 0 mm 1 m/S 670 mmHg 70%
    01:00 +21°C° 0 mm 1 m/S 670 mmHg 74%
    02:00 +20°C° 0 mm 1 m/S 669 mmHg 77%
    03:00 +20°C° 0 mm 1 m/S 669 mmHg 79%
    04:00 +19°C° 0 mm 1 m/S 669 mmHg 81%
    05:00 +19°C° 0 mm 1 m/S 669 mmHg 83%
    06:00 +21°C° 0 mm 2 m/S 670 mmHg 70%
    07:00 +24°C° 0 mm 3 m/S 671 mmHg 56%
    08:00 +27°C° 0 mm 3 m/S 672 mmHg 43%
    09:00 +29°C° 0 mm 4 m/S 672 mmHg 36%
    10:00 +32°C° 0 mm 4 m/S 672 mmHg 29%
    11:00 +34°C° 0 mm 4 m/S 672 mmHg 22%
    12:00 +35°C° 0 mm 4 m/S 672 mmHg 20%
    13:00 +36°C° 0 mm 4 m/S 671 mmHg 17%
    14:00 +37°C° 0 mm 4 m/S 670 mmHg 15%
    15:00 +36°C° 0 mm 4 m/S 669 mmHg 16%
    16:00 +35°C° 0 mm 4 m/S 669 mmHg 16%
    17:00 +34°C° 0 mm 4 m/S 669 mmHg 17%
    18:00 +31°C° 0 mm 3 m/S 669 mmHg 21%
    19:00 +29°C° 0 mm 3 m/S 669 mmHg 25%
    20:00 +27°C° 0 mm 2 m/S 669 mmHg 29%
    21:00 +26°C° 0 mm 2 m/S 670 mmHg 32%
    22:00 +25°C° 0 mm 2 m/S 670 mmHg 35%
    23:00 +24°C° 0 mm 2 m/S 670 mmHg 38%

    24 Oktober, Dienstag

    Zeit Temperatur Niederschläge Wind Luftdruck Luftfeuchtigkeit
    00:00 +23°C° 0 mm 2 m/S 669 mmHg 42%
    01:00 +22°C° 0 mm 1 m/S 669 mmHg 47%
    02:00 +21°C° 0 mm 1 m/S 668 mmHg 51%
    03:00 +21°C° 0 mm 1 m/S 668 mmHg 56%
    04:00 +20°C° 0 mm 1 m/S 668 mmHg 61%
    05:00 +19°C° 0 mm 1 m/S 668 mmHg 65%
    06:00 +22°C° 0 mm 1 m/S 669 mmHg 57%
    07:00 +25°C° 0 mm 2 m/S 670 mmHg 49%
    08:00 +27°C° 0 mm 3 m/S 671 mmHg 41%
    09:00 +30°C° 0 mm 3 m/S 671 mmHg 34%
    10:00 +33°C° 0 mm 3 m/S 671 mmHg 28%
    11:00 +35°C° 0 mm 3 m/S 671 mmHg 21%
    12:00 +36°C° 0 mm 3 m/S 670 mmHg 19%
    13:00 +37°C° 0 mm 3 m/S 670 mmHg 17%
    14:00 +38°C° 0 mm 3 m/S 669 mmHg 15%
    15:00 +37°C° 0 mm 3 m/S 669 mmHg 15%
    16:00 +36°C° 0 mm 3 m/S 668 mmHg 16%
    17:00 +35°C° 0 mm 3 m/S 668 mmHg 17%
    18:00 +33°C° 0 mm 3 m/S 668 mmHg 21%
    19:00 +30°C° 0 mm 2 m/S 668 mmHg 25%
    20:00 +27°C° 0 mm 2 m/S 669 mmHg 29%
    21:00 +27°C° 0 mm 2 m/S 669 mmHg 32%
    22:00 +26°C° 0 mm 2 m/S 669 mmHg 35%
    23:00 +25°C° 0 mm 2 m/S 669 mmHg 38%

    25 Oktober, Mittwoch

    Zeit Temperatur Niederschläge Wind Luftdruck Luftfeuchtigkeit
    00:00 +24°C° 0 mm 2 m/S 668 mmHg 40%
    01:00 +23°C° 0 mm 1 m/S 668 mmHg 42%
    02:00 +23°C° 0 mm 1 m/S 668 mmHg 45%
    03:00 +22°C° 0 mm 1 m/S 668 mmHg 47%
    04:00 +22°C° 0 mm 1 m/S 668 mmHg 49%
    05:00 +21°C° 0 mm 1 m/S 668 mmHg 51%
    06:00 +24°C° 0 mm 2 m/S 669 mmHg 45%
    07:00 +26°C° 0 mm 3 m/S 670 mmHg 39%
    08:00 +29°C° 0 mm 5 m/S 671 mmHg 33%
    09:00 +32°C° 0 mm 4 m/S 671 mmHg 28%
    10:00 +34°C° 0 mm 4 m/S 670 mmHg 24%
    11:00 +36°C° 0 mm 4 m/S 670 mmHg 20%
    12:00 +37°C° 0 mm 3 m/S 670 mmHg 18%
    13:00 +38°C° 0 mm 3 m/S 669 mmHg 16%
    14:00 +39°C° 0 mm 3 m/S 668 mmHg 15%
    15:00 +38°C° 0 mm 3 m/S 668 mmHg 15%
    16:00 +37°C° 0 mm 3 m/S 668 mmHg 16%
    17:00 +37°C° 0 mm 3 m/S 667 mmHg 17%
    18:00 +34°C° 0 mm 3 m/S 667 mmHg 20%
    19:00 +31°C° 0 mm 2 m/S 667 mmHg 23%
    20:00 +28°C° 0 mm 2 m/S 667 mmHg 26%
    21:00 +27°C° 0 mm 2 m/S 667 mmHg 29%
    22:00 +27°C° 0 mm 2 m/S 667 mmHg 31%
    23:00 +26°C° 0 mm 1 m/S 667 mmHg 33%

    26 Oktober, Donnerstag

    Zeit Temperatur Niederschläge Wind Luftdruck Luftfeuchtigkeit
    00:00 +25°C° 0 mm 1 m/S 667 mmHg 35%
    01:00 +24°C° 0 mm 1 m/S 667 mmHg 37%
    02:00 +24°C° 0 mm 1 m/S 666 mmHg 39%
    03:00 +23°C° 0 mm 1 m/S 666 mmHg 41%
    04:00 +23°C° 0 mm 1 m/S 667 mmHg 42%
    05:00 +22°C° 0 mm 1 m/S 667 mmHg 44%
    06:00 +25°C° 0 mm 1 m/S 668 mmHg 38%
    07:00 +28°C° 0 mm 2 m/S 669 mmHg 33%
    08:00 +31°C° 0 mm 3 m/S 670 mmHg 27%
    09:00 +34°C° 0 mm 3 m/S 670 mmHg 25%
    10:00 +36°C° 0 mm 3 m/S 669 mmHg 22%
    11:00 +38°C° 0 mm 3 m/S 669 mmHg 19%
    12:00 +39°C° 0 mm 2 m/S 669 mmHg 17%
    13:00 +40°C° 0 mm 2 m/S 668 mmHg 15%
    14:00 +42°C° 0 mm 1 m/S 668 mmHg 13%
    15:00 +40°C° 0 mm 2 m/S 667 mmHg 14%
    16:00 +39°C° 0 mm 2 m/S 666 mmHg 15%
    17:00 +38°C° 0 mm 2 m/S 666 mmHg 16%
    18:00 +35°C° 0 mm 2 m/S 666 mmHg 19%
    19:00 +32°C° 0 mm 1 m/S 666 mmHg 22%
    20:00 +30°C° 0 mm 1 m/S 666 mmHg 25%
    21:00 +29°C° 0 mm 1 m/S 665 mmHg 26%
    22:00 +29°C° 0 mm 1 m/S 665 mmHg 28%
    23:00 +26°C° 0 mm 0 m/S 665 mmHg 29%
    Mehr zeigen